Theta_e
285 285 286 285 284 285 286 286 286 286 286 284 284 283 288 286 282 281 285 288 284 288 291 293 294 295 293 294 295 296 296 295 295 296 296 296 297 297 297 297 297 297 297 299 299 300 300 301 301 301 302 303 304 304 304 304 304 304 305 306 306 307 309 312 314 317 318 319 319 319 318 317 315 315 314 314 314 312 311 311 311 311 311 311 309 310 309
285 286 286 285 284 285 284 285 286 287 287 286 287 288 288 287 286 288 287 286 285 290 292 293 295 295 295 295 296 295 294 295 295 296 296 296 296 295 296 296 297 298 298 299 299 300 301 300 300 300 301 301 302 303 303 303 304 304 304 305 305 306 307 309 311 314 316 318 318 318 317 316 315 314 313 314 313 311 310 311 311 310 308 307 307 307 307
284 285 286 285 285 285 284 286 287 285 285 285 286 286 285 285 285 285 284 282 283 290 292 293 292 291 293 294 293 295 295 295 295 295 296 296 295 295 296 297 297 298 299 299 299 300 300 300 300 300 301 301 302 302 303 303 303 303 304 304 304 305 306 308 310 313 315 316 317 316 316 315 315 314 313 313 312 311 311 310 309 308 307 307 307 306 306
279 283 283 284 285 285 283 284 285 285 284 281 283 282 286 284 283 285 284 281 282 289 292 290 292 293 293 293 294 295 295 295 295 295 295 295 295 295 295 297 298 298 298 299 299 300 300 300 300 300 300 300 301 301 302 302 302 303 303 303 303 304 306 307 309 310 313 315 315 315 315 314 314 314 313 312 311 310 309 308 309 308 306 306 306 306 305
278 282 284 283 284 282 279 280 283 286 287 288 288 288 288 288 288 284 281 283 289 291 291 290 291 293 294 294 294 294 294 294 295 295 295 295 295 295 296 296 297 297 298 298 299 300 300 300 300 300 300 300 301 301 301 302 302 302 302 302 303 304 305 306 308 310 312 314 315 315 315 314 314 313 312 310 309 308 307 308 307 306 305 304 304 304 304
277 281 283 284 278 272 275 284 286 286 286 287 286 285 287 289 289 286 287 288 288 288 289 290 292 292 293 293 294 293 294 294 295 296 296 296 296 297 297 297 297 298 299 299 300 300 300 300 300 301 301 300 301 302 302 301 301 301 301 302 303 303 304 305 307 309 310 312 314 314 315 314 313 312 310 308 309 309 308 306 306 305 304 304 303 303 302
276 279 279 275 270 274 283 286 288 287 286 286 286 287 286 287 288 288 287 289 289 289 290 291 292 293 292 293 294 295 294 295 295 295 296 296 297 297 297 298 298 298 299 300 300 300 301 300 301 301 301 302 302 301 301 300 301 301 301 301 302 303 303 305 306 308 309 311 313 313 314 313 312 310 308 308 307 306 305 305 305 304 303 303 302 302 302
278 275 275 267 272 282 285 286 288 289 288 288 286 284 286 287 287 287 287 290 290 291 291 291 291 292 293 295 295 295 296 296 296 296 296 297 297 297 297 297 298 298 298 299 299 300 301 300 300 300 300 301 301 300 301 300 300 301 301 301 301 302 303 304 305 307 308 310 311 312 312 311 309 308 307 306 305 304 304 303 303 302 302 301 300 300 300
274 274 275 276 281 281 284 283 285 286 284 284 284 279 282 286 287 288 289 289 290 291 291 291 292 293 293 291 292 294 293 293 295 295 296 297 297 297 297 297 297 299 299 299 299 300 300 300 300 300 301 301 301 300 300 300 299 299 300 300 301 302 302 304 305 306 307 309 310 311 311 309 307 306 305 305 305 303 302 301 300 300 299 300 300 300 299
279 276 274 274 274 271 277 282 287 288 289 289 288 284 282 287 287 288 288 287 288 289 291 290 291 293 289 287 289 292 294 294 294 295 296 297 297 298 298 298 298 299 300 300 300 300 300 300 300 301 301 301 300 299 299 299 299 299 299 300 301 301 302 303 304 305 307 308 309 310 310 308 307 306 306 305 304 303 301 299 299 299 299 299 298 299 298
277 275 272 271 269 274 281 284 286 289 288 289 289 283 280 285 287 288 288 287 289 289 289 289 292 289 285 286 289 292 294 294 294 294 296 296 297 297 297 297 297 298 299 300 299 299 299 299 300 301 301 300 299 298 299 299 299 299 300 301 301 302 302 303 304 305 306 307 309 309 309 309 308 306 305 304 302 301 300 301 300 300 300 298 297 297 297
277 275 273 273 275 276 282 285 287 288 289 287 285 276 277 284 288 288 288 288 288 289 289 289 290 287 283 285 289 293 293 292 294 295 295 295 296 296 297 298 299 299 299 299 298 299 299 300 301 301 300 299 299 298 298 299 299 299 300 301 302 303 303 303 304 305 306 307 308 309 309 309 307 305 303 301 300 300 300 300 298 297 298 297 296 297 296
276 275 275 276 278 283 286 286 288 287 288 285 278 274 278 285 287 289 289 288 290 290 289 290 287 290 291 291 292 295 294 294 295 296 297 296 296 295 296 297 297 297 298 298 297 298 299 300 300 301 300 299 298 298 299 298 298 300 301 302 302 302 303 303 304 305 306 307 308 309 309 308 306 304 302 301 301 300 299 299 298 297 297 297 296 295 294
275 276 274 275 277 283 288 288 289 288 284 276 275 282 287 287 287 290 291 290 292 291 290 290 290 290 292 294 294 293 294 294 295 294 295 295 295 296 296 296 296 297 297 297 298 298 299 299 300 300 299 298 298 298 298 298 299 301 302 302 302 302 302 303 304 305 306 307 308 309 308 305 304 303 302 301 300 299 298 297 297 296 296 294 294 294 294
274 273 273 272 269 279 287 287 285 287 279 280 284 286 287 288 288 289 290 291 291 291 290 291 291 292 292 292 292 293 293 292 292 293 293 293 293 294 295 296 297 296 296 296 297 298 299 299 299 299 299 298 298 298 298 299 301 302 302 302 302 302 302 303 304 305 306 307 308 308 306 304 302 300 300 300 299 299 298 298 297 296 294 293 293 293 293
273 272 270 272 279 284 289 286 279 284 285 287 287 286 284 287 289 289 289 291 291 292 291 290 290 290 290 291 291 291 291 291 292 292 293 293 293 294 295 296 296 296 296 296 297 298 298 299 299 299 298 297 297 297 298 301 301 302 302 302 302 302 301 302 303 304 305 307 308 305 303 302 301 300 299 299 299 299 299 298 296 294 293 294 294 294 295
277 275 278 283 285 287 287 287 287 288 290 290 289 288 287 287 288 291 290 290 291 291 291 291 291 290 291 291 292 291 292 292 293 293 293 293 294 294 295 295 296 296 296 296 297 297 298 298 299 299 299 298 297 297 299 300 301 301 302 302 302 301 301 302 303 304 306 306 304 303 302 301 298 297 295 296 296 296 297 295 294 293 293 294 296 297 298
284 285 285 286 285 286 287 288 290 288 289 289 290 288 287 289 291 292 290 291 292 292 292 290 290 290 291 291 291 292 292 292 293 294 294 294 295 296 296 296 296 296 297 297 297 296 297 298 298 299 299 299 298 298 300 300 301 302 302 302 302 301 302 302 303 304 303 302 301 301 300 299 298 298 298 298 295 292 293 293 293 293 293 295 296 296 295
279 274 284 284 285 286 287 287 289 290 290 289 289 288 289 289 290 290 291 291 291 291 291 290 290 290 291 290 291 292 292 292 293 293 293 294 295 295 295 296 296 296 296 296 296 296 297 299 299 300 300 300 300 301 300 301 302 302 303 302 302 302 302 302 303 302 301 300 299 298 299 300 300 299 299 298 295 292 291 291 291 293 294 294 294 295 293
277 277 282 284 286 287 287 287 286 286 288 289 289 290 290 290 290 290 290 291 291 291 290 291 290 290 291 290 291 291 292 292 292 293 293 294 294 295 296 296 296 296 296 296 296 296 297 299 300 300 300 300 301 301 301 302 303 303 302 302 302 302 302 302 301 301 300 292 296 298 298 298 297 296 297 297 295 292 291 291 291 292 291 293 293 294 292
281 283 284 285 285 285 286 286 287 288 288 287 288 289 289 289 289 289 290 291 291 291 290 291 291 290 291 291 292 291 291 292 292 293 293 294 294 295 295 296 296 295 296 296 296 297 297 299 299 299 299 300 301 301 302 303 303 302 302 300 301 301 302 301 300 300 298 298 299 299 298 297 296 296 295 295 296 294 294 295 294 294 296 297 297 295 294
276 277 280 283 277 277 283 285 287 288 289 288 288 288 288 289 289 289 289 290 291 291 292 291 291 290 290 291 292 291 292 292 293 293 294 294 295 295 296 296 296 296 296 296 296 296 297 299 299 299 300 301 302 303 303 303 303 302 301 301 301 301 301 300 299 298 298 299 298 297 298 297 295 293 288 290 294 295 291 288 287 290 293 295 296 294 294
276 281 284 285 284 284 285 286 287 288 289 288 287 287 287 288 289 290 289 289 289 290 291 292 291 290 290 291 292 291 292 292 293 294 294 294 294 294 295 295 295 295 295 296 296 296 297 299 299 300 300 301 301 302 303 304 303 302 302 301 300 299 298 298 296 297 297 296 295 295 295 295 294 293 292 291 286 288 289 288 288 288 287 287 288 290 293
283 285 285 286 284 282 285 287 288 288 289 288 287 288 288 288 289 290 290 290 289 289 291 292 292 292 291 292 292 291 292 293 293 294 294 294 294 294 295 295 294 294 294 295 296 296 298 298 299 300 300 300 299 300 301 302 302 302 301 300 298 298 297 296 294 295 297 295 295 295 294 294 293 291 290 289 289 287 287 287 288 287 287 287 287 287 289
282 286 286 286 286 286 288 288 288 289 289 289 288 288 289 289 290 291 290 290 291 291 290 291 292 293 292 292 292 291 291 292 293 292 292 292 292 293 293 294 294 294 295 296 297 298 298 299 299 299 297 298 299 299 299 300 301 301 300 299 297 296 296 295 295 293 295 295 295 295 294 294 293 292 291 291 290 289 288 286 286 287 287 287 287 287 287
286 286 287 287 287 287 288 288 288 288 289 290 289 288 289 290 290 290 290 291 291 292 292 291 291 292 292 291 291 291 291 291 291 291 291 291 291 292 292 293 294 295 295 296 296 297 298 299 298 296 296 297 298 298 299 300 301 299 298 297 296 296 294 294 295 296 296 294 294 294 296 295 294 294 293 293 292 291 289 289 289 288 287 286 287 287 286
288 288 287 285 284 285 287 286 285 288 289 290 289 289 289 290 290 290 291 291 291 292 291 291 291 291 291 291 290 290 289 290 290 290 290 289 289 290 291 292 292 292 292 293 295 296 296 296 295 296 296 297 298 298 298 298 297 296 295 294 294 290 289 291 296 297 297 296 296 295 294 295 294 294 294 294 294 292 291 290 289 289 289 289 287 287 289
288 288 288 283 282 283 285 287 288 288 289 289 289 289 290 290 290 290 290 290 290 291 291 290 290 289 289 290 289 288 288 288 287 288 288 288 289 290 290 291 291 291 292 293 294 295 294 295 296 295 296 298 299 297 297 297 296 296 295 294 294 293 293 293 296 296 295 294 293 293 294 295 296 294 294 293 292 293 292 291 291 290 290 290 289 286 284
287 288 288 288 287 288 288 288 288 287 287 288 289 290 290 289 289 289 289 289 289 289 289 290 291 290 288 288 288 287 286 286 286 286 287 288 289 289 289 290 293 294 295 294 295 295 295 295 296 296 297 300 300 299 298 297 296 296 295 295 294 294 293 293 293 292 292 292 293 293 290 291 294 293 292 292 292 292 291 291 290 291 290 289 289 289 288
287 287 287 287 288 288 287 286 286 287 287 288 288 288 289 288 287 288 289 289 290 289 289 289 288 288 288 287 287 286 285 285 285 285 286 287 287 287 289 292 293 293 294 295 294 295 295 295 295 296 297 299 299 299 299 298 297 296 296 296 296 295 295 293 293 293 292 291 290 287 290 292 293 293 291 292 292 291 291 290 290 289 290 290 289 290 289
286 287 287 287 287 288 286 286 287 287 287 288 288 288 288 289 288 288 289 289 288 287 286 286 286 286 286 286 286 286 286 285 285 285 285 286 286 286 287 288 288 287 288 290 294 296 296 296 296 295 298 298 297 297 298 297 297 296 296 295 295 289 287 288 290 293 292 291 290 291 291 292 292 292 289 290 290 291 291 290 289 290 289 290 289 289 290
285 285 285 286 286 286 286 286 286 286 287 288 288 287 288 288 287 287 285 285 285 286 285 285 285 285 285 285 285 285 285 285 285 285 286 286 286 286 286 286 286 286 288 288 290 292 294 295 293 294 297 297 296 296 296 295 295 294 294 291 292 292 289 287 290 290 291 290 291 291 290 291 291 291 290 290 291 290 290 290 289 289 290 289 289 288 289
283 282 283 284 284 284 284 285 285 285 285 285 286 287 287 287 286 285 285 285 285 285 285 284 285 285 285 285 285 284 284 285 285 285 285 285 285 285 286 286 287 287 287 288 289 290 291 291 293 295 297 297 296 296 296 296 295 294 293 293 292 291 288 288 288 291 290 291 291 291 291 291 291 293 291 290 290 289 290 290 289 289 289 290 290 289 288
284 283 283 284 284 283 283 284 285 285 285 285 286 286 285 286 285 285 285 285 284 284 284 284 285 285 285 285 284 284 284 283 282 283 283 284 285 285 286 286 287 286 287 288 288 288 289 291 293 295 295 296 295 295 295 295 294 293 292 291 290 290 291 291 292 292 291 289 289 289 290 289 291 290 290 290 290 290 288 288 288 288 289 288 290 289 284
287 287 287 286 286 286 286 285 285 284 284 283 284 284 285 285 285 284 285 284 284 284 285 285 284 285 284 284 284 284 284 283 282 282 283 283 284 285 286 287 287 287 286 286 286 287 288 289 290 291 292 293 293 293 293 292 292 292 291 291 290 290 291 291 292 291 290 290 291 291 289 289 288 286 287 289 289 289 288 287 288 288 288 288 288 288 286
287 286 286 286 286 286 286 285 285 285 284 283 283 283 283 284 284 284 283 284 285 285 284 284 284 284 283 283 283 283 283 283 283 283 282 282 283 285 284 284 285 285 285 285 285 287 289 289 286 286 288 289 290 291 290 291 291 290 290 290 290 290 290 289 289 289 289 290 289 289 288 286 286 288 289 290 289 289 288 288 287 287 287 286 286 286 286
287 286 286 285 285 286 285 285 285 285 284 284 284 283 283 284 284 284 285 284 284 284 284 283 283 282 282 283 283 284 284 284 284 283 283 283 283 282 282 283 283 283 283 282 284 287 288 287 286 286 288 289 288 288 287 286 289 289 290 290 291 291 290 290 289 289 289 288 288 288 287 288 288 288 288 288 288 287 287 287 286 285 285 284 284 284 284
286 286 285 285 285 285 285 285 286 286 285 285 285 284 284 284 284 284 284 284 284 284 284 283 283 283 283 283 283 282 283 283 284 284 283 283 282 281 280 280 280 281 281 281 284 287 287 287 286 286 287 287 287 287 286 285 286 289 289 290 290 290 289 289 288 288 288 288 288 288 288 288 287 287 286 286 285 285 284 284 284 284 284 284 284 284 284
286 287 286 285 286 286 286 286 287 287 286 285 285 285 285 285 285 285 284 284 284 284 284 283 283 283 282 282 281 282 282 283 283 283 283 283 283 281 280 280 280 281 282 284 285 285 286 286 287 286 286 286 286 286 286 285 286 288 289 289 289 289 288 288 287 287 287 287 287 287 286 285 285 284 284 284 284 284 283 282 283 283 283 283 283 283 283
286 285 285 285 285 285 285 285 285 285 286 287 286 285 286 285 285 285 284 284 284 285 284 284 283 282 282 281 281 281 282 282 283 283 283 283 282 282 282 281 282 283 283 284 284 284 284 284 285 285 285 285 286 286 285 285 285 287 287 288 288 287 287 287 287 287 286 286 285 284 284 283 283 283 283 283 283 283 283 283 283 283 283 283 283 283 283
285 285 285 285 285 285 285 285 284 285 285 286 286 286 286 286 285 284 284 284 284 284 284 284 283 282 282 282 282 282 282 282 282 282 282 282 281 280 279 279 281 283 283 284 284 284 284 284 284 284 284 284 285 284 286 285 286 286 286 286 286 286 286 286 286 285 285 285 284 284 284 283 283 283 283 283 282 282 282 282 282 282 282 281 281 282 282
285 286 286 286 285 285 285 286 286 285 285 286 286 286 286 286 285 284 284 284 284 283 283 283 282 282 283 283 283 283 283 283 283 282 282 280 280 280 279 279 282 282 282 283 284 284 284 284 284 283 284 285 285 284 284 286 286 286 285 285 285 285 285 285 285 284 284 284 284 284 284 284 283 283 282 282 282 282 282 282 281 281 281 281 281 281 280
285 285 285 286 285 286 286 286 285 285 285 285 285 285 285 285 285 284 284 283 283 283 283 283 282 282 282 283 282 282 282 283 283 283 283 282 282 282 281 281 282 281 282 283 283 284 283 284 284 283 282 283 284 283 284 286 286 286 286 285 285 285 285 285 285 285 284 284 284 283 283 283 283 283 282 282 282 282 282 281 281 281 281 281 280 280 280
284 285 285 285 285 286 286 286 286 285 284 283 284 285 284 284 284 283 283 282 282 282 282 282 282 282 282 282 282 281 281 281 282 283 283 282 283 283 283 283 283 282 282 283 283 282 282 282 282 282 281 282 282 283 285 285 285 285 285 285 284 285 285 285 285 284 284 284 284 284 284 283 283 283 283 282 282 282 282 281 281 281 281 281 281 280 280
285 284 284 284 285 285 285 285 284 283 283 284 283 283 283 283 283 283 283 282 281 281 281 282 281 281 281 281 281 281 281 281 281 282 281 280 280 280 282 282 282 282 282 282 283 283 283 282 281 280 281 281 281 282 284 284 284 284 284 284 284 284 284 284 284 284 284 284 284 284 284 283 283 283 283 282 281 281 281 281 281 281 281 280 280 280 280
285 285 285 283 284 284 284 284 284 284 284 283 282 282 282 283 282 282 282 282 281 281 281 281 281 281 282 282 282 282 282 281 281 282 281 281 280 280 282 281 281 281 280 281 282 282 282 280 280 280 280 280 281 283 284 284 284 284 284 284 284 283 284 284 284 284 284 284 283 284 283 283 283 282 282 282 281 281 280 280 280 280 279 279 279 279 279
286 285 285 285 285 284 284 284 284 284 283 283 282 281 281 282 282 282 282 282 281 281 281 281 281 281 282 282 282 281 281 280 280 281 282 282 282 281 281 280 280 279 280 281 281 281 281 280 280 279 280 280 281 283 283 283 284 283 283 283 283 283 283 283 284 284 283 283 283 282 282 282 282 282 281 280 280 280 280 279 279 278 278 278 278 277 277
286 286 286 285 285 284 284 284 284 283 283 282 282 281 281 281 282 282 282 282 282 282 282 282 281 282 282 282 282 282 282 281 279 279 281 281 282 281 281 281 280 279 279 280 279 279 278 279 278 279 279 280 282 282 282 282 282 282 282 282 282 282 283 283 282 282 282 282 282 283 282 281 281 281 280 279 279 279 279 278 278 277 277 277 277 277 277
287 287 286 285 285 285 284 283 283 282 282 281 281 281 281 281 281 281 281 281 281 281 281 281 281 281 282 281 281 282 282 282 281 279 281 281 281 281 281 280 279 279 280 280 280 280 278 278 278 278 279 279 281 282 283 282 281 280 280 280 280 281 281 281 281 281 281 281 281 281 281 280 280 279 279 279 278 278 278 277 277 277 276 276 276 276 276
288 286 286 285 285 285 285 284 283 284 283 282 282 282 281 282 282 281 281 281 281 280 281 281 281 281 281 282 282 282 282 282 282 282 281 281 281 281 280 280 279 278 278 280 280 280 279 278 278 278 279 280 280 280 282 282 281 280 280 279 280 281 279 279 279 279 280 280 279 279 279 279 279 278 278 278 277 277 277 277 276 276 275 276 275 275 276
287 286 286 286 286 287 286 287 286 285 284 283 283 282 281 282 282 281 281 281 281 281 280 280 281 281 281 281 281 282 282 282 281 280 281 281 280 279 278 279 279 279 279 279 279 279 280 280 280 279 279 280 279 279 279 279 279 278 278 278 278 279 278 278 278 278 278 279 279 279 278 278 278 278 277 277 276 276 276 276 275 275 275 275 275 275 275
288 288 288 287 286 285 285 284 284 284 284 283 283 282 282 282 281 281 281 278 281 281 280 280 279 280 281 281 280 281 281 281 281 281 280 281 280 280 279 278 280 279 279 279 279 279 279 279 278 277 278 279 279 279 277 277 277 277 277 277 277 277 276 276 276 276 276 277 277 277 277 277 277 277 276 276 276 275 275 275 275 275 275 275 275 274 274
Wind_Speed
3 4 5 2 3 5 6 5 5 6 7 4 7 4 4 8 6 10 6 11 5 4 7 9 10 9 10 12 10 5 1 1 2 2 1 1 1 1 2 3 3 3 4 3 4 5 5 5 6 6 5 5 6 7 8 9 9 8 7 7 7 6 5 5 6 7 9 9 9 8 7 7 8 9 10 10 8 8 12 12 10 9 6 6 6 7 8
3 5 5 4 5 4 5 7 7 8 6 9 9 8 6 11 11 6 3 6 11 8 7 7 6 5 7 5 2 1 2 4 3 2 2 1 1 2 3 4 4 3 4 4 4 4 5 6 7 7 6 6 6 6 6 7 8 9 9 8 7 7 6 6 6 7 7 8 8 9 8 9 9 10 9 10 10 11 10 9 8 8 9 8 9 9 9
6 5 5 4 6 6 11 10 7 5 6 8 8 5 2 1 8 4 3 8 11 3 4 6 3 1 2 3 5 5 3 2 3 3 3 0 2 3 4 5 5 4 4 5 6 6 7 7 7 6 6 7 7 7 7 8 8 8 8 8 9 8 8 7 7 7 6 7 7 9 9 9 9 10 10 9 9 9 9 9 11 11 10 11 9 9 9
5 5 10 11 8 9 10 9 6 8 8 6 4 5 6 6 7 5 6 7 6 8 7 1 1 3 6 8 7 4 3 3 4 5 2 1 2 4 5 5 5 6 7 8 8 8 8 7 7 6 7 7 7 7 7 7 8 8 8 7 8 9 8 9 8 7 6 6 8 9 9 9 10 10 8 8 9 9 9 11 9 8 9 9 8 8 8
6 6 7 7 6 8 13 8 9 16 12 8 4 5 2 10 9 8 8 10 2 3 2 7 7 7 7 5 3 2 2 3 5 5 2 0 1 2 3 5 6 7 7 7 7 7 6 7 7 8 7 7 8 8 8 8 7 7 8 7 8 8 9 9 9 8 7 7 7 8 9 9 8 8 8 9 9 10 11 9 9 10 10 10 9 9 9
0 1 4 2 3 10 5 3 3 3 11 10 13 9 7 5 5 3 3 4 3 2 2 7 6 7 3 2 2 1 1 2 4 5 5 5 4 3 1 1 3 4 4 5 6 6 7 7 6 6 6 6 7 7 7 8 8 9 9 8 7 9 9 9 9 9 9 8 8 7 8 8 8 8 8 9 9 10 9 10 11 10 11 12 11 10 9
2 1 0 2 8 9 2 1 1 3 6 7 9 8 5 3 4 6 8 2 2 0 0 3 4 6 3 1 3 2 4 4 4 4 5 6 5 5 4 3 4 5 6 6 6 7 7 7 7 7 7 6 6 6 7 8 8 9 9 9 9 8 9 10 9 9 9 8 9 8 7 7 7 7 8 7 9 8 8 11 11 11 11 11 9 8 8
1 0 1 1 3 4 4 3 3 3 3 3 1 3 7 6 5 4 3 1 1 1 3 4 3 2 1 3 3 2 3 5 4 4 5 6 5 6 5 5 5 6 8 9 9 9 7 7 7 8 8 7 6 7 7 8 8 8 8 9 9 9 9 9 9 9 9 9 8 9 8 7 7 8 8 10 10 8 7 6 6 8 7 9 10 9 8
4 0 5 8 6 8 5 1 3 4 2 4 3 2 4 5 5 5 4 4 4 4 4 2 2 1 1 2 2 4 4 2 2 4 6 6 6 6 7 6 7 7 7 8 9 8 8 8 9 9 8 7 7 7 7 8 9 9 8 9 10 10 10 10 9 9 9 9 8 9 8 8 8 9 9 9 7 8 9 8 10 10 10 9 9 9 9
2 4 4 3 3 6 1 1 2 2 3 2 2 0 2 5 5 3 5 7 6 6 5 5 3 4 3 2 2 4 7 5 4 2 3 4 5 6 7 7 7 8 8 8 8 7 9 10 10 9 8 8 8 8 8 9 9 9 8 9 10 10 10 10 10 10 9 9 9 10 10 9 9 8 8 7 8 8 11 11 10 9 9 8 7 8 8
2 1 3 2 2 1 1 1 4 3 2 2 3 1 4 3 4 4 3 7 6 4 5 4 3 3 2 3 4 5 7 7 4 6 9 9 9 8 8 9 11 11 11 11 11 10 10 11 11 10 10 9 9 10 10 10 9 10 9 10 10 10 10 10 10 10 10 9 9 10 11 10 8 9 9 8 7 7 7 5 5 5 5 7 7 6 6
3 2 4 7 2 2 2 2 4 3 1 4 2 6 2 3 6 4 4 6 6 5 3 1 1 2 3 4 6 7 5 4 5 7 10 11 11 11 11 9 9 11 11 11 11 11 12 13 12 11 10 9 10 10 11 10 10 10 11 11 10 10 10 10 10 10 9 9 9 11 12 9 7 7 6 7 8 8 8 9 10 9 6 6 7 5 4
1 3 4 1 3 1 2 2 4 2 3 1 5 9 3 6 6 6 3 4 3 2 1 2 3 3 5 7 9 8 7 7 8 8 8 10 11 12 12 11 10 10 10 10 11 12 12 12 12 10 9 9 10 11 11 10 11 12 11 10 10 10 10 10 11 11 9 9 10 11 12 8 7 8 7 8 8 7 7 7 9 7 7 6 5 5 4
4 2 3 5 2 1 0 1 3 2 2 3 3 4 4 5 8 6 4 4 4 3 3 3 4 7 7 7 6 8 10 10 11 11 11 10 10 11 11 12 11 11 11 11 12 13 13 13 12 10 10 10 11 11 11 12 13 12 11 10 10 11 12 12 11 10 10 9 9 10 8 6 8 8 8 7 7 9 10 10 9 9 8 8 6 5 2
0 1 4 2 5 2 0 4 4 2 3 1 5 7 5 4 7 7 5 4 5 4 4 6 6 5 7 7 8 9 10 10 11 12 11 11 10 10 11 11 11 11 11 12 13 14 12 12 11 10 11 12 12 12 13 14 12 11 10 10 12 13 13 13 12 11 10 10 10 6 7 9 11 10 9 10 8 6 8 8 8 7 8 6 5 4 2
5 2 3 2 1 3 2 3 6 1 1 3 5 6 9 6 5 5 5 4 5 4 4 6 7 6 7 7 7 8 8 9 10 10 10 11 11 11 12 12 13 13 13 13 13 13 12 11 11 11 11 13 12 13 16 14 12 11 10 12 12 12 12 12 11 10 9 10 8 6 8 8 8 10 9 10 8 8 8 7 6 7 5 5 4 4 4
2 3 2 6 6 5 2 3 7 8 5 6 8 8 9 9 8 6 4 5 3 3 4 8 8 9 8 10 10 12 13 13 14 13 13 13 14 14 13 13 12 12 13 15 13 13 12 13 12 12 12 13 14 15 15 13 13 12 13 13 12 11 11 11 10 9 9 8 8 8 9 11 12 11 10 8 9 6 8 7 6 6 4 4 5 4 4
4 9 9 6 8 9 9 3 3 6 9 10 7 6 7 7 7 6 7 8 7 7 7 8 9 10 11 13 13 12 13 13 13 13 14 14 14 14 13 13 13 12 13 13 13 14 14 14 13 12 13 13 15 16 14 13 14 13 13 14 13 12 11 10 9 8 7 9 8 8 9 8 10 10 10 9 9 6 6 6 6 6 5 4 3 3 2
5 4 4 7 10 11 10 12 10 7 7 8 6 6 5 7 8 9 9 8 7 8 8 9 11 12 11 13 13 13 13 14 14 15 16 15 14 14 16 15 13 12 12 13 14 14 15 13 12 12 13 14 15 15 15 14 14 14 14 15 13 11 10 9 8 8 11 10 9 9 9 6 7 7 7 7 8 8 6 6 6 5 4 2 2 2 3
6 9 8 11 14 11 11 9 10 11 10 8 5 5 6 7 8 7 9 10 10 9 11 11 12 13 12 12 13 12 13 13 14 15 16 16 15 15 14 15 14 14 13 14 16 15 14 13 12 14 15 15 15 15 14 14 13 14 15 14 13 11 10 8 8 11 11 13 12 8 8 9 8 6 5 6 7 8 8 7 8 6 3 3 3 3 2
10 11 12 11 11 12 11 9 8 6 7 11 12 10 10 10 13 13 12 9 11 11 12 12 12 13 14 13 14 14 14 14 14 15 15 15 16 15 16 16 14 13 14 16 16 17 18 16 17 16 17 16 15 15 14 14 14 14 13 13 13 12 9 8 10 9 11 13 10 11 11 10 10 9 9 6 6 5 6 7 7 7 6 4 3 3 3
8 8 10 11 12 11 11 15 15 13 11 10 13 12 12 12 12 12 14 15 14 12 12 12 11 13 14 16 15 16 15 15 17 17 17 18 19 18 16 14 16 17 17 18 19 18 18 17 17 17 16 16 15 14 14 14 14 14 13 12 13 10 8 8 9 10 10 9 9 10 9 8 9 7 9 10 4 6 4 2 6 7 5 3 4 3 4
10 12 14 12 12 15 13 13 16 16 11 10 14 15 16 17 16 14 13 14 14 14 13 9 10 13 14 17 17 18 18 18 18 18 19 19 18 18 18 18 19 18 18 17 17 18 17 16 16 16 16 15 14 14 14 14 14 14 13 10 9 7 9 9 11 11 9 9 9 9 8 8 8 7 7 8 15 11 8 8 10 14 15 13 11 8 7
13 13 12 11 10 14 16 16 16 15 14 14 17 17 16 17 17 15 13 12 13 14 14 13 12 15 18 19 18 19 20 19 18 19 18 18 18 18 18 18 19 20 20 19 18 19 17 16 15 14 13 10 9 8 10 12 14 14 13 11 10 10 10 10 12 11 10 10 10 9 7 9 8 8 9 8 6 13 13 9 10 11 12 12 11 11 9
11 12 12 12 14 16 16 17 14 13 13 13 14 16 15 15 14 12 12 14 14 16 17 18 17 14 16 18 16 17 17 18 17 18 18 16 16 15 15 17 19 19 18 17 16 15 15 14 13 9 5 5 7 8 8 9 10 11 10 10 10 10 10 12 10 12 10 9 8 6 8 8 8 9 8 8 7 6 9 13 12 10 11 12 12 11 9
11 12 12 12 13 14 14 13 15 13 13 13 12 8 13 15 16 16 16 16 14 14 16 16 16 16 15 16 15 15 15 16 16 14 12 12 13 13 16 18 19 19 18 17 16 14 13 12 5 1 4 4 4 4 3 5 7 10 11 12 13 12 11 11 11 8 9 9 8 9 8 9 9 11 11 10 9 9 8 7 8 10 9 8 9 10 8
13 12 13 12 12 12 10 12 12 13 15 15 16 14 13 15 16 15 13 11 12 12 13 15 15 15 14 14 15 13 12 12 11 11 11 13 14 16 16 16 17 17 16 13 12 11 6 4 6 3 3 4 4 4 6 12 13 14 14 14 12 13 14 11 10 10 8 8 9 8 8 8 8 9 9 9 9 9 8 8 7 7 6 4 3 2 4
11 10 8 9 9 10 12 14 16 16 15 14 14 14 12 10 11 12 13 13 13 13 13 13 13 13 11 8 6 8 8 9 10 10 11 12 13 14 15 15 15 15 13 11 10 4 9 8 5 3 4 5 6 8 9 12 15 15 13 14 12 11 10 10 9 7 7 6 6 6 6 6 7 8 7 6 7 6 7 8 8 6 5 4 4 4 3
9 8 8 9 11 13 13 13 14 14 14 13 13 12 11 12 12 11 12 12 12 12 10 11 8 4 4 5 6 7 8 8 10 11 12 12 12 12 11 14 12 9 7 6 8 12 12 10 7 5 3 5 7 10 13 14 14 13 11 10 9 9 8 7 7 7 6 5 5 7 8 6 6 5 5 5 5 5 6 7 5 5 5 4 4 3 5
9 9 10 11 11 12 13 13 13 14 14 13 14 13 11 11 11 10 11 11 11 9 7 5 4 5 6 6 7 8 8 10 10 10 10 10 10 8 8 4 8 8 8 12 13 12 11 8 7 5 3 5 6 7 11 10 10 11 11 10 9 7 5 6 6 6 6 5 7 9 7 5 5 5 5 5 5 5 5 4 5 5 4 5 4 2 2
11 12 13 12 12 11 13 13 12 12 13 13 13 13 12 10 9 9 9 6 6 6 6 6 6 7 8 8 8 8 8 8 9 8 8 7 6 8 10 10 10 9 8 8 9 8 5 5 5 4 3 3 3 5 7 8 8 8 8 6 5 7 8 7 5 6 6 6 6 5 5 5 4 5 3 4 3 3 4 4 4 4 4 4 2 2 2
13 13 13 11 12 13 13 11 10 12 11 10 10 11 9 8 6 6 8 7 7 7 8 8 9 9 8 8 6 7 7 7 7 7 7 7 8 9 9 10 12 10 10 9 9 7 5 6 6 3 4 5 5 5 5 6 6 6 4 5 5 4 6 8 5 5 6 5 6 6 5 3 4 3 3 3 3 4 4 5 5 4 3 3 2 2 1
12 13 13 14 15 14 12 12 11 8 9 10 8 8 9 10 9 9 8 8 8 8 8 8 8 8 7 5 6 8 9 7 7 10 10 10 10 10 10 9 14 16 14 10 10 8 8 7 5 5 6 7 8 7 4 4 5 5 5 5 5 5 6 5 8 7 7 7 5 4 2 4 3 3 2 3 4 3 3 4 4 3 2 3 4 3 3
9 8 10 11 9 10 11 10 6 6 6 8 9 10 11 10 10 9 9 9 10 10 9 8 8 7 6 7 9 10 10 11 11 11 10 10 10 9 8 7 11 14 12 14 15 12 9 9 7 6 8 9 9 7 6 5 5 6 6 6 5 5 5 5 6 7 6 6 5 6 5 3 4 2 4 4 3 2 3 3 3 2 2 2 3 3 5
8 9 9 9 9 7 6 6 7 8 8 9 9 11 10 10 10 10 10 10 10 8 8 7 7 7 8 10 12 10 11 11 10 10 10 9 9 9 5 8 14 18 18 15 14 12 11 11 9 7 9 11 11 9 8 7 5 6 7 7 6 5 5 5 6 6 6 5 5 5 4 4 4 5 5 5 5 5 4 3 4 3 2 1 1 1 2
9 8 7 7 7 8 9 9 8 9 8 9 9 9 9 10 11 11 12 10 7 7 7 7 7 7 9 11 9 9 10 9 11 11 11 10 7 9 14 18 17 17 15 15 16 15 13 11 11 11 10 9 10 11 10 7 6 6 7 6 6 6 6 7 7 7 7 6 7 6 5 6 7 6 6 6 5 5 4 4 4 3 2 2 1 2 2
8 7 7 7 7 9 9 8 7 7 8 8 7 8 9 10 10 8 7 7 8 7 6 4 5 9 10 8 6 7 9 10 9 9 9 9 10 16 17 18 17 15 12 13 12 12 11 10 11 16 13 11 12 12 10 7 4 5 5 5 6 6 7 7 7 7 7 7 7 5 6 6 5 5 6 6 5 5 5 4 4 3 2 2 2 3 3
8 7 8 7 7 8 8 7 7 7 9 10 9 9 9 7 6 6 7 7 6 5 5 6 7 5 5 5 8 10 9 9 11 11 12 15 15 16 15 15 12 13 13 10 8 9 11 13 18 15 12 12 11 9 10 12 10 7 6 7 7 7 8 8 8 8 7 7 6 6 5 4 5 5 5 6 6 7 5 4 4 3 2 3 3 4 4
8 6 7 6 6 6 7 7 8 8 9 9 9 8 7 7 7 7 8 8 8 7 7 7 7 8 9 10 10 11 12 10 9 10 12 14 15 15 14 12 12 11 8 7 8 11 13 14 15 13 12 10 9 9 10 13 12 9 8 8 9 9 8 8 8 8 8 7 6 6 6 6 7 7 6 6 6 6 6 5 4 3 3 4 4 5 5
7 7 6 5 6 5 6 7 7 8 7 7 8 7 6 7 7 7 8 9 9 8 8 8 10 9 11 11 11 11 10 11 11 11 11 9 9 9 9 13 15 13 11 11 9 10 13 15 12 10 9 10 9 8 9 11 10 8 8 8 8 9 9 8 8 8 7 7 7 7 7 7 7 7 7 6 6 5 4 4 4 4 4 4 5 5 5
7 5 4 5 5 5 6 6 7 6 6 6 6 7 7 6 6 8 8 8 7 8 9 9 9 10 10 10 9 9 9 10 11 11 9 8 10 10 11 11 11 11 11 9 9 9 12 12 10 9 9 9 9 8 7 8 8 8 9 9 9 9 9 9 9 8 7 7 7 6 6 6 7 8 7 7 6 5 5 5 5 5 5 5 5 5 5
5 5 5 5 4 4 4 4 5 6 6 7 6 7 8 8 7 7 6 6 7 8 9 10 11 9 8 8 8 9 11 11 11 12 13 13 12 9 10 9 10 9 12 9 9 10 10 10 11 10 9 8 9 10 8 8 9 9 10 10 10 9 9 9 9 8 8 7 7 7 7 7 7 8 7 7 7 6 6 6 6 6 6 6 5 5 5
5 5 5 5 5 5 5 5 5 5 5 7 7 7 7 7 7 6 7 7 8 8 8 8 9 9 9 9 9 11 10 9 9 9 11 13 14 14 11 8 8 10 13 10 11 9 10 10 10 9 12 10 8 9 10 9 9 9 9 9 10 9 9 9 9 8 8 8 8 8 8 8 8 8 8 7 7 6 6 6 6 6 6 6 6 5 5
5 4 4 5 3 3 4 4 4 4 6 6 6 6 7 6 6 6 6 7 8 8 8 8 8 8 9 9 9 9 9 9 8 7 7 7 9 12 11 8 7 9 13 9 10 10 10 10 9 10 12 12 12 11 9 9 9 10 10 9 9 9 9 9 10 9 9 9 9 8 9 8 8 7 7 6 5 5 6 6 6 6 6 6 6 6 6
6 5 5 4 4 3 3 3 4 5 4 4 6 6 6 6 6 6 6 7 7 7 7 7 7 7 7 8 8 8 7 7 8 8 9 9 9 9 9 9 9 8 9 10 9 10 10 10 12 15 12 13 12 11 9 9 10 10 9 9 9 10 10 10 10 10 9 9 8 8 7 7 6 6 5 5 5 5 5 5 5 5 5 5 5 6 6
6 5 4 5 5 4 3 3 3 3 4 5 6 6 6 5 5 5 6 6 6 6 6 6 6 7 7 6 6 6 7 8 9 9 8 8 7 6 7 8 8 8 11 12 9 8 8 13 15 14 14 13 11 9 9 9 9 9 10 9 9 9 10 10 10 9 8 8 7 6 6 6 5 5 5 5 5 5 5 5 5 5 5 5 5 5 5
5 5 5 4 4 3 3 3 3 3 4 4 4 3 4 4 4 4 4 5 6 6 6 6 6 6 6 6 6 5 5 6 7 7 7 6 6 6 7 9 9 11 10 9 9 9 8 8 10 13 13 12 11 8 8 9 9 9 9 8 8 8 8 8 8 8 7 7 7 7 7 6 5 5 5 5 5 5 5 5 5 5 5 5 5 6 6
4 4 4 4 4 4 4 3 3 3 3 3 2 2 2 2 3 4 4 4 5 5 6 5 5 6 6 6 5 5 5 4 5 6 6 6 6 6 6 6 7 7 7 9 10 11 15 14 14 13 12 10 9 8 8 8 8 8 8 8 7 7 7 7 6 6 6 6 6 6 6 5 5 5 5 5 5 5 5 5 5 5 5 5 5 6 6
3 3 3 3 4 5 4 3 3 2 3 3 3 2 2 2 2 3 3 4 4 5 5 5 5 5 5 6 6 5 6 6 5 5 4 5 5 6 6 7 9 8 7 6 7 7 11 13 13 12 11 9 7 8 8 8 8 8 8 7 7 7 7 7 6 6 6 6 6 6 5 5 5 5 5 5 5 5 5 5 5 6 6 5 5 6 6
4 4 4 4 5 5 5 4 3 3 4 4 3 3 2 2 2 2 2 2 3 3 3 4 4 4 4 4 5 5 5 5 5 5 5 5 6 6 6 7 7 8 8 6 6 6 7 10 11 11 8 7 7 7 8 8 7 7 7 7 7 7 7 7 7 8 7 6 6 5 5 5 5 5 5 5 5 5 5 5 5 6 8 6 5 6 6
5 6 6 5 5 4 5 5 4 4 4 4 4 4 3 2 1 2 1 2 2 3 3 3 3 3 3 4 4 4 4 4 5 5 4 5 5 6 7 6 7 7 7 7 6 6 6 6 6 6 7 6 6 6 6 5 5 5 5 5 6 5 5 6 5 5 6 5 4 5 5 5 5 5 5 4 4 4 5 5 5 5 5 5 5 6 6
6 6 4 4 3 2 2 2 2 3 4 4 5 4 3 3 3 3 2 1 1 3 2 2 3 3 3 3 3 4 4 4 4 4 4 4 4 4 5 6 6 6 7 7 6 6 5 5 6 8 7 6 5 5 5 6 5 5 5 5 5 5 6 5 5 4 4 5 4 4 5 5 4 4 4 4 4 4 5 5 5 5 5 5 5 5 6
Wind_Direction
221 214 249 216 240 237 265 253 259 242 210 180 201 219 175 168 216 264 154 187 205 206 213 219 222 203 200 205 204 197 183 203 187 194 186 108 61 24 47 45 37 24 20 11 14 12 9 6 10 11 5 1 357 352 356 352 353 0 351 354 350 346 333 317 300 282 269 259 253 249 234 222 209 205 204 203 187 168 186 188 187 173 141 111 137 151 153
248 245 238 210 214 244 228 225 231 241 229 224 227 229 199 204 228 244 214 201 222 196 212 217 235 211 199 171 125 133 219 208 190 201 206 180 90 43 35 27 20 13 0 2 5 7 11 7 2 357 357 354 352 347 351 348 348 351 347 344 340 335 325 318 307 296 284 268 257 247 234 220 214 209 203 198 191 190 193 185 151 127 137 151 169 160 155
257 281 267 186 230 241 262 255 239 237 238 246 239 249 233 22 283 266 207 224 240 237 247 252 50 74 114 134 194 208 205 195 205 218 224 208 44 39 33 22 12 4 359 0 1 4 5 359 353 345 342 341 338 341 346 344 344 343 340 334 332 327 320 316 312 304 291 280 265 250 238 227 219 214 207 198 192 185 172 158 158 162 160 160 158 158 152
261 221 260 267 260 256 259 257 268 245 216 229 206 221 202 205 235 224 219 239 248 240 222 14 195 172 191 197 195 195 205 218 222 228 221 124 60 36 21 10 2 3 359 356 356 350 346 344 342 339 336 332 329 332 336 332 332 330 325 321 321 318 315 313 309 307 299 287 273 261 235 228 222 216 199 186 185 177 164 165 165 150 146 148 143 139 138
264 243 245 271 303 306 272 234 208 234 240 234 224 237 172 216 218 237 226 238 309 359 172 219 207 194 200 201 187 197 188 231 236 239 240 29 16 17 6 357 357 354 350 344 334 331 329 335 332 330 327 319 322 327 325 323 319 315 313 312 311 309 309 311 308 307 302 284 265 256 242 226 219 206 193 184 178 169 170 159 141 155 156 144 144 139 141
315 342 3 327 277 252 251 70 343 298 252 246 241 241 231 256 225 260 4 333 350 282 217 219 230 186 162 105 62 22 348 191 230 247 257 268 285 282 275 306 329 332 331 327 322 315 308 305 307 303 295 292 299 306 307 312 314 312 311 308 306 306 305 303 301 301 302 293 275 259 251 223 211 202 187 183 175 170 160 160 165 157 149 149 146 147 150
253 6 206 258 243 251 65 344 317 256 263 273 265 289 33 342 321 291 280 312 23 137 283 34 54 87 68 295 276 240 212 228 252 272 280 279 275 290 305 316 326 327 320 309 306 305 309 316 310 304 297 291 298 302 306 309 307 306 306 305 304 301 298 296 296 296 297 294 283 275 254 222 204 190 180 171 166 164 165 169 164 155 150 141 140 142 147
64 219 124 231 239 339 316 294 309 305 252 342 225 137 55 26 4 325 302 2 358 80 90 65 48 33 347 296 222 211 200 216 252 265 271 276 269 271 286 309 308 310 315 314 308 303 300 295 294 292 290 294 297 299 304 298 299 297 299 299 296 292 288 288 291 296 295 290 281 269 251 212 193 183 175 171 171 164 157 150 135 130 129 137 147 154 154
228 214 213 244 358 303 267 18 36 358 8 8 356 277 65 9 4 5 19 15 18 26 55 53 48 11 325 18 90 101 97 131 220 255 291 302 300 291 287 288 292 296 296 297 297 295 292 288 288 283 285 287 289 294 297 298 296 294 295 294 292 288 284 288 292 292 291 284 274 261 237 200 190 182 176 176 163 159 155 156 152 154 152 152 152 152 156
177 237 265 272 256 264 15 205 314 260 250 261 291 253 133 46 22 1 2 16 354 355 17 37 21 357 348 237 169 34 21 26 8 345 288 295 285 283 283 284 280 285 291 293 289 283 287 286 281 280 281 287 290 292 291 289 289 288 284 281 281 280 281 285 285 285 283 280 269 254 233 204 193 186 175 165 166 171 166 162 164 159 145 141 143 147 151
133 206 236 241 242 276 66 326 325 337 242 206 201 207 230 96 350 11 337 0 7 10 5 17 354 354 298 273 305 348 350 345 13 336 320 310 303 296 291 294 297 297 296 296 297 293 283 279 276 274 280 286 290 289 290 287 286 286 280 276 276 278 278 278 278 277 276 274 264 250 232 212 194 177 173 167 153 149 156 126 78 76 112 129 131 143 162
230 236 243 255 199 262 132 284 311 341 143 185 223 263 252 27 330 340 331 346 348 354 42 69 295 276 284 289 315 339 346 328 309 303 301 300 298 296 294 286 280 286 289 289 285 280 276 272 272 276 280 281 280 283 282 283 280 278 275 274 279 279 275 271 269 267 266 263 256 246 231 208 185 174 135 128 151 157 154 150 145 151 149 131 139 155 153
240 205 260 329 262 205 279 292 304 356 173 277 245 255 26 316 311 307 289 295 297 308 264 178 293 237 269 299 303 312 309 296 287 271 264 271 282 287 287 283 283 281 277 271 272 272 275 277 278 275 273 272 274 274 275 274 273 268 270 275 277 275 272 268 265 263 263 259 249 239 227 195 169 161 155 155 148 148 142 128 125 126 128 133 137 149 167
248 233 250 263 299 260 6 164 293 232 191 230 243 11 271 286 293 306 270 268 271 234 254 227 243 283 283 274 278 283 287 288 288 283 280 276 269 265 263 267 272 272 268 265 264 265 264 266 269 271 270 269 269 271 270 266 262 265 268 271 272 277 276 272 268 264 265 259 247 235 210 150 161 160 158 146 147 144 141 134 127 130 121 142 152 147 125
58 180 263 290 267 75 315 6 319 63 335 360 343 307 299 252 281 275 268 242 255 209 240 223 244 272 287 290 291 287 286 288 287 289 291 285 279 278 279 273 257 253 262 262 259 257 263 265 266 264 264 266 268 269 267 265 266 265 267 269 277 278 276 273 271 269 266 256 240 209 181 181 169 160 154 146 129 108 114 118 121 117 146 150 139 126 129
282 222 198 211 62 42 83 345 307 349 190 334 326 317 298 290 246 248 244 232 254 277 278 299 301 286 284 285 275 282 276 270 277 283 285 282 278 272 266 264 270 268 268 263 263 262 261 261 259 259 257 261 263 265 267 270 272 271 268 273 275 273 271 269 268 268 261 250 224 160 149 143 135 130 133 130 116 122 117 101 116 131 105 107 137 163 185
250 290 304 311 299 285 336 317 290 283 299 317 311 297 287 289 285 254 240 278 272 235 281 297 295 293 279 280 281 282 286 287 287 286 283 280 280 281 280 277 271 264 264 266 266 266 262 261 258 255 251 253 258 259 263 266 266 266 268 271 267 263 263 264 261 260 248 212 174 152 149 144 132 128 118 112 100 79 103 119 133 119 115 150 172 176 178
298 280 265 282 289 304 310 280 258 292 300 297 296 300 307 302 302 303 296 307 298 301 299 299 298 293 300 298 295 286 282 280 278 275 276 277 276 276 278 277 274 272 275 271 266 265 265 260 258 255 255 251 254 256 259 260 259 260 262 261 257 254 257 259 259 244 183 157 141 133 130 124 123 122 119 113 115 111 100 113 116 121 141 177 174 146 147
317 277 71 317 319 312 306 313 303 276 248 266 288 301 294 303 308 308 302 293 288 280 284 280 283 284 284 285 283 283 283 281 280 280 278 275 273 276 279 279 278 279 278 278 277 274 273 268 263 263 263 266 266 267 263 258 256 255 256 253 248 245 247 250 237 186 154 143 129 122 119 112 107 102 111 118 130 133 119 123 120 116 127 157 155 144 160
256 279 296 293 290 290 296 289 293 305 314 305 276 271 279 282 284 276 284 291 286 286 288 289 288 288 283 277 277 276 274 275 278 280 280 280 281 278 276 280 281 280 278 276 279 279 279 279 278 280 281 276 271 267 261 256 254 250 248 246 242 239 235 233 189 169 155 140 136 130 131 123 110 94 98 133 133 138 149 148 137 144 151 144 162 170 133
290 286 275 274 288 282 273 276 272 268 278 295 294 285 284 292 297 297 290 269 276 282 282 284 284 285 283 277 276 278 281 282 279 280 282 284 283 283 284 283 281 278 282 283 280 282 283 284 286 285 279 275 268 263 260 257 254 250 243 236 233 231 220 192 171 161 150 153 145 136 129 127 131 144 153 143 120 123 136 149 156 159 151 156 158 115 104
285 288 301 322 313 309 307 299 299 299 295 288 284 284 279 279 279 280 283 286 285 281 277 277 278 277 281 283 284 282 282 281 283 286 287 288 288 286 282 283 284 283 280 279 279 280 280 282 282 280 274 270 269 265 264 261 254 247 237 230 227 217 187 166 155 151 151 140 130 128 133 131 120 90 40 56 84 138 157 91 60 98 114 117 116 122 101
292 301 300 301 292 287 278 284 295 298 295 286 283 280 280 281 282 282 279 279 279 277 273 263 262 271 277 280 283 285 286 285 286 286 285 286 286 285 287 286 284 281 280 278 277 276 277 279 276 274 275 274 273 271 263 250 241 235 230 216 199 174 159 153 151 148 141 130 127 128 132 127 118 111 105 56 37 34 100 122 99 92 93 95 87 82 105
289 288 289 293 289 287 293 293 291 293 297 297 293 286 278 273 274 278 277 274 275 281 284 281 278 280 280 281 283 282 282 281 282 283 282 279 277 279 282 281 280 281 278 276 274 274 276 275 274 274 278 281 266 245 242 239 236 232 224 193 170 162 150 143 143 137 131 121 128 135 119 120 117 124 119 111 90 47 49 78 92 99 103 108 110 107 102
286 295 295 292 288 287 287 287 288 286 286 284 291 295 295 293 288 282 279 282 281 282 285 289 289 285 282 283 283 281 281 284 285 284 283 279 275 273 273 274 272 272 273 272 274 275 276 271 276 288 290 277 266 258 245 233 224 214 188 153 134 127 128 127 124 130 134 125 130 121 121 123 130 138 137 130 111 96 57 53 64 86 105 114 120 120 115
278 287 287 283 282 280 279 282 282 279 280 289 287 273 284 282 282 284 282 281 283 285 284 285 287 287 286 288 288 286 284 282 282 282 280 278 278 276 273 270 271 272 273 273 271 270 267 276 277 2 353 339 301 267 199 179 161 139 124 120 124 127 128 130 131 131 134 139 141 140 142 148 147 144 149 144 131 123 121 117 91 70 65 81 108 115 113
300 296 292 287 277 276 278 290 298 302 298 295 289 284 284 287 285 281 282 279 275 278 279 282 284 288 290 289 288 284 282 291 294 287 284 283 280 276 276 277 276 272 268 266 264 260 252 127 76 30 338 8 59 105 109 109 107 106 108 108 107 105 117 129 128 134 142 139 137 137 137 145 142 139 140 138 134 138 141 139 135 136 139 125 110 99 147
298 295 291 290 296 297 298 300 297 299 298 295 294 290 284 281 280 275 276 282 285 286 290 292 289 289 290 296 308 308 309 306 303 300 295 288 289 289 284 278 271 263 253 243 242 180 119 108 131 112 49 42 67 89 90 96 102 104 104 108 112 121 127 127 126 129 134 125 120 121 138 140 137 131 129 130 137 140 136 138 138 139 140 141 145 136 152
316 311 300 284 283 289 293 297 304 306 306 305 300 296 293 289 288 288 287 290 294 295 289 294 304 318 326 324 329 325 321 316 311 310 307 307 305 299 289 275 262 240 210 189 140 123 130 145 138 116 61 26 45 81 95 101 104 108 109 111 113 113 114 112 112 115 106 95 111 130 130 116 113 120 119 118 120 130 140 144 144 143 143 145 153 163 203
310 307 305 305 306 306 306 309 313 309 307 306 304 299 294 289 285 289 296 294 295 309 337 9 29 4 352 343 340 333 325 321 318 312 310 311 312 311 305 316 67 65 87 108 120 135 149 142 138 117 50 13 28 58 78 83 92 99 104 109 113 116 111 95 97 99 102 104 115 121 114 111 111 118 119 124 129 138 137 136 138 140 147 153 155 140 114
314 316 316 313 314 315 317 312 311 309 309 307 305 299 291 285 284 288 304 346 34 43 30 27 21 12 8 3 348 339 327 324 321 318 316 310 316 5 26 37 63 63 59 69 94 113 97 78 71 68 61 57 40 59 75 82 82 82 93 84 78 67 79 90 109 129 127 119 115 105 96 102 113 121 127 128 131 132 134 135 140 147 148 144 134 111 95
323 323 323 326 326 325 323 323 322 318 321 321 312 305 308 314 329 24 60 56 39 40 39 30 24 21 14 2 346 347 339 335 336 342 350 359 15 21 31 39 56 58 56 49 45 40 48 63 57 50 103 103 106 118 112 117 116 119 107 106 100 101 97 113 121 110 95 90 94 96 107 117 118 119 125 134 138 137 139 143 150 148 140 134 118 97 70
334 333 338 338 335 332 324 322 328 349 9 5 7 31 56 64 70 69 58 57 52 41 40 33 25 21 10 359 6 12 360 347 6 17 12 15 19 25 31 42 59 59 56 51 48 39 38 37 36 48 84 97 99 98 94 101 112 112 108 106 103 99 104 113 112 101 87 88 76 83 90 88 104 118 119 119 125 137 143 141 139 133 125 105 94 82 54
332 326 320 320 322 316 313 328 10 26 29 36 37 47 55 59 61 62 55 50 50 42 32 26 18 9 10 27 31 24 17 23 21 12 6 9 21 28 26 45 64 64 56 46 41 34 25 18 18 44 51 52 56 60 64 80 101 100 104 108 105 106 104 102 96 88 88 75 86 82 81 80 82 98 111 114 116 116 113 117 112 108 102 91 89 95 66
338 330 330 330 334 342 11 32 36 37 37 40 41 45 45 49 53 53 48 47 43 34 25 19 12 10 23 35 35 28 30 32 23 16 11 12 28 36 31 64 64 57 50 39 32 26 24 22 12 20 52 57 54 49 44 39 38 81 79 85 79 82 83 78 74 75 81 87 81 81 80 85 88 80 80 86 88 90 87 81 74 73 75 78 68 48 49
1 356 356 357 21 35 42 43 45 49 52 50 44 47 46 50 52 50 50 45 31 27 24 22 21 26 30 30 22 18 23 27 32 29 24 13 3 44 48 48 50 49 47 39 22 21 22 30 27 47 56 51 53 45 39 37 52 69 96 95 91 86 79 79 80 76 67 72 74 74 76 79 79 73 73 81 78 78 77 69 60 50 45 28 4 352 356
21 20 21 25 42 46 47 41 37 45 48 45 44 46 48 44 46 38 38 44 38 30 22 4 16 32 34 23 19 27 34 35 34 36 33 26 32 49 47 47 42 44 42 42 9 9 21 29 38 55 54 47 45 38 24 14 84 75 79 75 79 84 85 81 72 76 72 68 73 84 91 86 76 73 62 64 65 62 59 64 58 52 41 26 18 11 17
25 27 41 49 49 48 49 44 51 61 62 61 55 53 52 51 39 35 38 32 26 17 23 38 42 37 35 27 28 28 22 24 31 33 37 38 30 44 39 38 27 27 36 21 352 17 28 28 38 46 47 46 39 31 26 33 46 53 56 60 65 69 71 77 77 74 74 70 63 64 64 67 76 75 72 70 68 63 62 60 54 43 34 24 24 25 24
37 32 43 45 45 51 50 51 51 53 59 63 62 59 50 46 41 37 37 34 22 10 24 32 34 37 31 36 35 28 25 16 13 27 38 44 42 47 50 40 37 31 27 3 15 32 31 35 44 44 42 39 38 38 33 34 36 49 53 59 62 65 62 65 69 71 68 65 63 67 74 74 76 77 73 69 67 68 63 56 48 41 32 26 23 24 19
45 44 41 40 42 42 58 54 50 52 51 54 57 54 36 39 37 37 37 38 27 20 27 28 35 40 38 39 40 35 25 23 20 24 29 30 40 43 49 41 32 27 19 13 20 33 35 39 45 50 47 43 41 43 42 36 35 44 49 54 58 63 64 66 68 72 75 75 74 71 71 69 70 71 71 68 66 58 52 48 43 37 31 27 25 19 13
47 43 45 50 49 57 64 68 59 46 43 44 50 48 33 37 38 42 33 30 24 29 34 32 38 41 39 40 43 43 39 35 36 34 22 27 40 40 44 38 17 20 14 22 33 40 41 39 36 40 43 44 45 37 45 42 49 53 55 57 61 65 70 68 68 66 67 68 67 67 69 73 71 68 64 63 57 53 49 46 46 39 34 28 22 15 10
45 52 67 63 68 68 71 69 68 57 50 45 35 39 39 36 42 43 34 29 32 34 42 44 39 38 35 33 36 41 43 41 46 47 45 47 44 42 47 34 14 16 3 17 30 36 38 39 37 35 34 40 48 37 49 60 60 61 63 62 63 65 69 71 71 70 69 69 67 68 65 66 67 67 64 60 56 51 49 47 45 40 35 31 23 16 4
49 48 59 70 66 58 62 68 70 67 58 40 36 36 37 38 41 43 42 38 35 35 40 43 41 40 38 36 40 42 36 31 40 51 62 60 54 50 52 40 24 14 10 32 34 41 38 42 41 41 31 37 42 35 53 59 61 63 64 64 66 67 69 70 71 70 68 68 66 64 63 63 64 66 65 63 59 55 51 50 46 42 39 32 25 18 12
68 57 53 56 55 50 61 71 63 56 59 48 37 43 46 46 38 38 40 41 39 34 36 37 35 37 35 34 43 43 32 24 23 22 48 64 62 49 40 37 31 26 22 33 42 46 44 38 36 25 23 29 33 38 51 54 58 60 61 62 64 65 66 68 68 67 66 66 65 65 66 65 65 64 62 62 62 57 54 50 48 45 41 38 31 26 18
88 80 69 61 52 50 58 57 62 67 73 71 58 47 43 46 41 34 40 46 45 40 34 35 34 32 35 38 46 47 44 33 26 20 34 34 42 35 21 26 32 32 29 32 46 45 46 41 28 25 27 25 34 40 52 55 57 57 58 61 63 65 66 66 66 66 65 65 63 63 61 61 62 61 62 58 54 52 44 44 43 37 35 29 25 17 13
110 113 111 97 82 68 53 71 81 92 91 82 71 55 40 42 48 44 37 43 52 47 42 37 36 30 28 35 46 50 53 48 41 41 46 42 47 36 20 21 29 27 34 38 42 40 42 31 32 32 29 26 27 42 49 52 58 59 59 59 60 62 64 66 65 65 59 57 56 56 59 61 60 56 52 54 50 49 46 37 40 36 33 24 17 6 354
132 117 103 100 100 96 100 98 100 99 94 80 69 55 31 34 47 57 53 53 57 56 49 46 42 35 29 25 18 21 35 51 50 37 37 45 49 47 40 33 29 27 38 44 46 42 34 32 32 32 34 35 42 49 48 54 59 60 58 59 58 61 61 61 60 61 59 57 55 59 57 54 53 53 50 47 44 40 39 37 38 31 26 19 11 360 355
137 118 121 132 130 127 123 129 136 113 84 80 87 87 62 48 55 64 62 62 60 57 53 47 43 38 30 31 33 31 13 15 55 46 28 34 39 42 43 42 31 20 41 63 56 44 37 38 36 33 29 37 49 52 53 53 56 57 58 54 53 52 55 59 56 54 54 53 51 49 46 45 44 44 43 40 37 35 33 35 35 29 23 15 9 359 353
175 156 139 142 146 155 155 150 154 145 133 135 135 122 124 104 91 74 68 68 69 64 57 50 45 43 41 37 34 39 42 34 51 69 36 34 40 37 40 42 33 29 45 51 52 56 38 39 38 33 34 40 50 55 61 61 58 60 58 54 53 49 48 48 46 49 53 53 51 49 48 45 41 38 39 37 36 32 30 31 33 31 22 15 6 358 351
173 159 171 177 177 179 179 180 190 172 152 159 158 152 165 196 137 99 86 76 75 77 71 57 50 45 42 41 40 44 46 52 57 62 63 53 47 48 44 43 42 34 34 44 42 44 43 42 44 40 41 48 51 55 65 65 64 60 63 59 62 63 53 51 55 53 54 54 50 49 47 45 44 42 38 38 32 26 24 25 27 27 24 25 12 356 350
185 192 199 193 195 196 191 203 187 164 172 171 158 156 172 210 139 134 129 111 123 97 83 78 63 53 51 53 52 46 43 52 53 41 52 61 57 51 42 48 48 40 38 39 41 35 36 36 33 36 48 52 54 51 50 51 59 57 49 51 54 51 47 43 41 49 50 46 49 49 44 42 40 39 39 33 26 24 22 20 19 21 22 20 9 357 346
202 199 187 173 181 180 196 196 171 173 169 162 162 167 180 170 159 169 141 132 157 112 123 101 86 67 53 60 57 52 47 38 40 57 56 54 55 61 53 37 42 41 41 40 39 38 35 37 41 41 40 46 53 59 57 51 56 58 55 51 48 52 48 38 37 41 46 48 44 47 47 39 34 39 35 28 23 20 20 18 18 23 24 15 8 355 345